Tracking 33199 objects as of 16-Feb-2026
HD Live streaming from Space Station
objects crossing your sky now

MIDAS 4 DEB

Track MIDAS 4 DEB now!
10-day predictions


NORAD ID: 194
Int'l Code: 1961-028C
Perigee: 3,199.9 km
Apogee: 4,028.3 km
Inclination: 95.8 °
Period: 165.5 minutes
Semi major axis: 9985 km
RCS: 0.6373 m2 (medium)
Launch date: October 21, 1961
Source: United States (US)
Launch site: AIR FORCE WESTERN TEST RANGE (AFWTR)

Note: This is SATELLITE DEBRIS
Your satellite tracking list
Your tracking list is empty




NASA's NSSDC Master Catalog

Two Line Element Set (TLE):
1 00194U 61028C   26046.42114047  .00000019  00000-0  95430-2 0  9995
2 00194  95.8279 223.0857 0414821 301.2995  54.7873  8.70111812 42540
Source of the keplerian elements: AFSPC